Location: Caltech
(34.1382°N, 118.1253°W)
Time: 18:02:25
(UTC-07:00)

Iridium 75 - Visible Passes

Search period start: 26 May 2018 00:00
Search period end: 05 June 2018 00:00
Orbit: 776 x 779 km, 86.4° (Epoch: 26 May)

Date Brightness Start Highest point End Pass type
(mag) Time Alt. Az. Time Alt. Az. Time Alt. Az.
26 May 7.4 01:19:55 10° N 01:23:14 35° NE 01:23:14 35° NE visible
26 May 8.2 03:02:18 10° NW 03:03:42 13° WNW 03:03:42 13° WNW visible
27 May 8.0 00:47:00 10° NNE 00:49:44 22° NE 00:49:44 22° NE visible
27 May 7.7 02:27:30 10° NNW 02:30:12 24° NW 02:30:12 24° NW visible
28 May 8.5 00:15:05 10° NE 00:16:15 12° ENE 00:16:15 12° ENE visible
28 May 7.2 01:53:29 10° NNW 01:56:42 36° NNW 01:56:42 36° NNW visible
29 May 7.2 01:19:52 10° N 01:23:13 40° NNE 01:23:13 40° NNE visible
30 May 7.6 00:46:40 10° NNE 00:49:45 29° NE 00:49:45 29° NE visible
30 May 8.0 02:28:13 10° NW 02:30:13 17° WNW 02:30:13 17° WNW visible
31 May 8.2 00:14:01 10° NNE 00:16:16 18° ENE 00:16:16 18° ENE visible
31 May 7.5 01:53:49 10° NNW 01:56:44 28° NW 01:56:44 28° NW visible
01 Jun 7.2 01:19:58 10° N 01:23:16 40° NNW 01:23:16 40° NNW visible
02 Jun 7.3 00:46:31 10° N 00:49:49 37° NNE 00:49:49 37° NNE visible
02 Jun 8.4 02:29:28 10° NW 02:30:17 12° WNW 02:30:17 12° WNW visible
03 Jun 7.8 00:13:30 10° NNE 00:16:21 24° NE 00:16:21 24° NE visible
03 Jun 7.9 01:54:20 10° NNW 01:56:50 21° NW 01:56:50 21° NW visible
03 Jun 8.3 23:41:15 10° NE 23:42:54 14° ENE 23:42:54 14° ENE visible
04 Jun 7.4 01:20:12 10° NNW 01:23:23 34° NW 01:23:23 34° NW visible
